Time,TemperatureF,DewpointF,PressureIn,WindDirection,WindDirectionDegrees,WindSpeedMPH,WindSpeedGustMPH,Humidity,HourlyPrecipIn,Conditions,Clouds,dailyrainin,SoftwareType,DateUTC
2013-08-09 01:02:00,69.0,62.0,29.98,North,5,0.0,0.0,78,0.00,,,0.00,,2013-08-09 05:02:00,
2013-08-09 01:32:00,69.0,62.0,29.98,North,360,0.0,0.0,78,0.00,,,0.00,,2013-08-09 05:32:00,
2013-08-09 01:43:00,69.0,62.0,29.97,NNE,28,0.0,0.0,78,0.00,,,0.00,,2013-08-09 05:43:00,
2013-08-09 01:52:00,69.0,62.0,29.98,North,355,0.0,0.0,78,0.00,,,0.00,,2013-08-09 05:52:00,
2013-08-09 02:01:00,68.0,61.0,29.98,North,355,0.0,0.0,79,0.00,,,0.00,,2013-08-09 06:01:00,
2013-08-09 02:32:00,67.0,61.0,29.96,NNE,19,0.0,0.0,82,0.00,,,0.00,,2013-08-09 06:32:00,
2013-08-09 02:43:00,67.0,62.0,29.96,NNE,22,0.0,0.0,83,0.00,,,0.00,,2013-08-09 06:43:00,
2013-08-09 02:52:00,67.0,61.0,29.96,ENE,67,0.0,0.0,82,0.00,,,0.00,,2013-08-09 06:52:00,
2013-08-09 03:01:00,67.0,62.0,29.96,NNW,335,0.0,0.0,83,0.00,,,0.00,,2013-08-09 07:01:00,
2013-08-09 03:12:00,67.0,61.0,29.96,NE,46,0.0,0.0,82,0.00,,,0.00,,2013-08-09 07:12:00,
2013-08-09 03:22:00,67.0,62.0,29.96,NNE,26,0.0,0.0,83,0.00,,,0.00,,2013-08-09 07:22:00,
2013-08-09 03:33:00,67.0,62.0,29.97,NNW,336,0.0,0.0,84,0.00,,,0.00,,2013-08-09 07:33:00,
2013-08-09 03:43:00,67.0,62.0,29.96,North,350,0.0,0.0,84,0.00,,,0.00,,2013-08-09 07:43:00,
2013-08-09 03:53:00,67.0,62.0,29.96,North,349,0.0,0.0,85,0.00,,,0.00,,2013-08-09 07:53:00,
2013-08-09 04:02:00,66.0,62.0,29.96,North,349,0.0,0.0,86,0.00,,,0.00,,2013-08-09 08:02:00,
2013-08-09 04:32:00,66.0,62.0,29.96,North,5,0.0,0.0,87,0.00,,,0.00,,2013-08-09 08:32:00,
2013-08-09 04:43:00,66.0,62.0,29.97,North,355,0.0,0.0,87,0.00,,,0.00,,2013-08-09 08:43:00,
2013-08-09 04:53:00,66.0,62.0,29.97,North,355,0.0,0.0,87,0.00,,,0.00,,2013-08-09 08:53:00,
2013-08-09 05:02:00,66.0,62.0,29.97,North,355,0.0,0.0,88,0.00,,,0.00,,2013-08-09 09:02:00,
2013-08-09 05:22:00,65.0,62.0,29.97,NNW,338,0.0,0.0,89,0.00,,,0.00,,2013-08-09 09:22:00,
2013-08-09 05:52:00,65.0,62.0,29.97,North,5,0.0,0.0,89,0.00,,,0.00,,2013-08-09 09:52:00,
2013-08-09 06:01:00,65.0,62.0,29.97,North,5,0.0,0.0,89,0.00,,,0.00,,2013-08-09 10:01:00,
2013-08-09 06:12:00,65.0,62.0,29.97,North,5,0.0,0.0,90,0.00,,,0.00,,2013-08-09 10:12:00,
2013-08-09 06:22:00,64.0,61.0,29.98,North,5,0.0,0.0,90,0.00,,,0.00,,2013-08-09 10:22:00,
2013-08-09 06:43:00,64.0,61.0,29.97,North,5,0.0,0.0,91,0.00,,,0.00,,2013-08-09 10:43:00,
2013-08-09 07:53:00,64.0,62.0,29.98,North,5,0.0,0.0,92,0.00,,,0.00,,2013-08-09 11:53:00,
2013-08-09 08:02:00,65.0,62.0,29.99,North,5,0.0,0.0,91,0.00,,,0.00,,2013-08-09 12:02:00,
2013-08-09 08:43:00,66.0,63.0,30.00,NNE,17,0.0,0.0,90,0.00,,,0.00,,2013-08-09 12:43:00,
2013-08-09 09:32:00,67.0,63.0,30.00,East,98,0.0,0.0,88,0.00,,,0.00,,2013-08-09 13:32:00,
2013-08-09 09:43:00,68.0,64.0,30.01,East,98,0.0,0.0,87,0.00,,,0.00,,2013-08-09 13:43:00,
2013-08-09 09:52:00,68.0,64.0,30.01,East,98,0.0,0.0,87,0.00,,,0.00,,2013-08-09 13:52:00,
2013-08-09 10:02:00,69.0,65.0,30.00,East,98,0.0,0.0,86,0.00,,,0.00,,2013-08-09 14:02:00,
2013-08-09 10:11:00,70.0,65.0,30.00,East,98,0.0,0.0,85,0.00,,,0.00,,2013-08-09 14:11:00,
2013-08-09 10:22:00,70.0,65.0,30.00,North,5,0.0,0.0,84,0.00,,,0.00,,2013-08-09 14:22:00,
2013-08-09 10:33:00,70.0,65.0,30.01,NNW,342,0.0,0.0,84,0.00,,,0.00,,2013-08-09 14:33:00,
2013-08-09 10:43:00,71.0,65.0,30.01,NNW,331,0.0,0.0,82,0.00,,,0.00,,2013-08-09 14:43:00,
2013-08-09 10:53:00,72.0,67.0,30.01,NNW,346,0.0,0.0,83,0.00,,,0.00,,2013-08-09 14:53:00,
2013-08-09 11:02:00,72.0,65.0,30.01,NW,311,0.0,0.0,80,0.00,,,0.00,,2013-08-09 15:02:00,
2013-08-09 11:33:00,74.0,66.0,30.01,NNW,343,0.0,0.0,76,0.00,,,0.00,,2013-08-09 15:33:00,
2013-08-09 11:53:00,75.0,63.0,30.01,NW,304,0.0,0.0,67,0.00,,,0.00,,2013-08-09 15:53:00,
2013-08-09 12:01:00,75.0,63.0,30.02,NNE,20,0.0,0.0,66,0.00,,,0.00,,2013-08-09 16:01:00,
2013-08-09 12:32:00,77.0,63.0,30.01,WNW,298,0.0,0.0,61,0.00,,,0.00,,2013-08-09 16:32:00,
2013-08-09 12:53:00,77.0,63.0,30.01,West,276,0.0,0.0,61,0.00,,,0.00,,2013-08-09 16:53:00,
2013-08-09 13:02:00,76.0,61.0,30.01,SW,234,0.0,0.0,59,0.00,,,0.00,,2013-08-09 17:02:00,
2013-08-09 13:11:00,77.0,62.0,30.01,NNW,340,0.0,0.0,60,0.00,,,0.00,,2013-08-09 17:11:00,
2013-08-09 13:33:00,76.0,60.0,30.01,NW,306,0.0,0.0,58,0.00,,,0.00,,2013-08-09 17:33:00,
2013-08-09 13:52:00,77.0,61.0,30.01,NE,38,0.0,0.0,58,0.00,,,0.00,,2013-08-09 17:52:00,
2013-08-09 14:01:00,77.0,63.0,30.01,NW,307,0.0,0.0,61,0.00,,,0.00,,2013-08-09 18:01:00,
2013-08-09 14:53:00,78.0,62.0,30.01,NNW,327,3.0,8.0,59,0.00,,,0.00,,2013-08-09 18:53:00,
2013-08-09 15:02:00,79.0,62.0,30.01,West,280,3.0,6.0,57,0.00,,,0.00,,2013-08-09 19:02:00,
2013-08-09 15:11:00,79.0,61.0,30.01,WNW,295,4.0,7.0,55,0.00,,,0.00,,2013-08-09 19:11:00,
2013-08-09 15:43:00,79.0,62.0,30.01,NW,319,3.0,7.0,56,0.00,,,0.00,,2013-08-09 19:43:00,
2013-08-09 15:52:00,79.0,62.0,30.01,WSW,256,3.0,7.0,57,0.00,,,0.00,,2013-08-09 19:52:00,
2013-08-09 16:43:00,79.0,62.0,30.00,West,281,4.0,7.0,56,0.00,,,0.00,,2013-08-09 20:43:00,
2013-08-09 17:01:00,79.0,63.0,30.00,NW,319,4.0,9.0,58,0.00,,,0.00,,2013-08-09 21:01:00,
2013-08-09 17:43:00,79.0,63.0,30.01,WNW,298,5.0,9.0,58,0.00,,,0.00,,2013-08-09 21:43:00,
2013-08-09 18:01:00,78.0,63.0,30.00,West,276,3.0,8.0,61,0.00,,,0.00,,2013-08-09 22:01:00,
2013-08-09 18:42:00,78.0,64.0,30.01,West,281,2.0,7.0,62,0.00,,,0.00,,2013-08-09 22:42:00,
2013-08-09 18:52:00,79.0,64.0,30.00,WSW,254,3.0,8.0,60,0.00,,,0.00,,2013-08-09 22:52:00,
2013-08-09 19:22:00,78.0,63.0,30.00,West,261,4.0,7.0,61,0.00,,,0.00,,2013-08-09 23:22:00,
2013-08-09 19:52:00,76.0,64.0,30.00,West,274,4.0,7.0,66,0.00,,,0.00,,2013-08-09 23:52:00,
2013-08-09 20:01:00,76.0,64.0,30.00,WNW,300,2.0,5.0,67,0.00,,,0.00,,2013-08-10 00:01:00,
2013-08-09 20:33:00,75.0,64.0,30.01,WNW,283,1.0,3.0,69,0.00,,,0.00,,2013-08-10 00:33:00,
2013-08-09 20:43:00,75.0,65.0,30.01,WNW,283,0.0,1.0,70,0.00,,,0.00,,2013-08-10 00:43:00,
2013-08-09 20:52:00,75.0,65.0,30.01,WNW,283,0.0,1.0,70,0.00,,,0.00,,2013-08-10 00:52:00,
2013-08-09 21:01:00,74.0,64.0,30.01,WNW,283,0.0,1.0,71,0.00,,,0.00,,2013-08-10 01:01:00,
2013-08-09 21:11:00,74.0,64.0,30.01,WNW,283,0.0,2.0,71,0.00,,,0.00,,2013-08-10 01:11:00,
2013-08-09 21:22:00,74.0,64.0,30.01,WNW,283,0.0,1.0,72,0.00,,,0.00,,2013-08-10 01:22:00,
2013-08-09 21:32:00,74.0,66.0,30.01,WNW,283,0.0,0.0,75,0.00,,,0.00,,2013-08-10 01:32:00,
2013-08-09 21:42:00,74.0,66.0,30.01,WNW,283,0.0,0.0,75,0.00,,,0.00,,2013-08-10 01:42:00,
2013-08-09 21:52:00,72.0,66.0,30.01,WNW,283,0.0,0.0,81,0.00,,,0.00,,2013-08-10 01:52:00,
2013-08-09 22:03:00,72.0,66.0,30.01,WNW,283,0.0,0.0,82,0.00,,,0.00,,2013-08-10 02:03:00,
2013-08-09 22:11:00,72.0,66.0,30.01,WNW,283,0.0,0.0,82,0.00,,,0.00,,2013-08-10 02:11:00,
2013-08-09 22:21:00,72.0,66.0,30.01,WNW,283,0.0,0.0,82,0.00,,,0.00,,2013-08-10 02:21:00,
2013-08-09 22:32:00,72.0,67.0,30.01,WNW,283,0.0,0.0,83,0.00,,,0.00,,2013-08-10 02:32:00,
2013-08-09 22:42:00,71.0,66.0,30.02,WNW,283,0.0,0.0,83,0.00,,,0.00,,2013-08-10 02:42:00,
2013-08-09 22:52:00,69.0,65.0,30.03,WNW,283,0.0,0.0,88,0.00,,,0.00,,2013-08-10 02:52:00,
2013-08-09 23:01:00,69.0,65.0,30.03,WNW,283,0.0,0.0,88,0.00,,,0.00,,2013-08-10 03:01:00,
2013-08-09 23:11:00,69.0,65.0,30.03,WNW,283,0.0,0.0,88,0.00,,,0.00,,2013-08-10 03:11:00,
2013-08-09 23:22:00,69.0,65.0,30.03,WNW,283,0.0,0.0,88,0.00,,,0.00,,2013-08-10 03:22:00,
2013-08-09 23:32:00,69.0,65.0,30.03,WNW,283,0.0,0.0,88,0.00,,,0.00,,2013-08-10 03:32:00,
2013-08-09 23:42:00,69.0,65.0,30.03,WNW,283,0.0,0.0,88,0.00,,,0.00,,2013-08-10 03:42:00,
2013-08-09 23:52:00,69.0,66.0,30.03,West,275,0.0,0.0,90,0.00,,,0.00,,2013-08-10 03:52:00,